, AK

(GMT )
Tin City

Weather History for PATC - November, 2012

Change the Weather History Date:

Wednesday, November 28, 2012

  Actual Average Record
Temperature  
Mean Temperature 18 °F -  
Max Temperature 26 °F 16 °F 39 °F (2007)
Min Temperature 10 °F 3 °F -17 °F (1998)
Degree Days  
Heating Degree Days 48    
Moisture  
Dew Point 8 °F    
Average Humidity 73    
Maximum Humidity 97    
Minimum Humidity 53    
Precipitation  
Precipitation 0.00 in - - ()
Sea Level Pressure  
Sea Level Pressure 30.43 in    
Wind  
Wind Speed 16 mph (NNE)    
Max Wind Speed 28 mph    
Max Gust Speed -    
Visibility 10 miles    
Events      
Averages and records for this station are not official NWS values.
T = Trace of Precipitation, MM = Missing Value Source: NWS Daily Summary

Daily Weather History Graph

Daily Weather History Graph

Search for Another Location

Airport or City:

Trip Planner

Search our weather history database for the weather conditions in past years. The results will help you decide how hot, cold, wet, or windy it might be!

Date:

Astronomy

Nov. 28, 2012 Rise Set
Actual Time 11:43 AM AKST 4:15 PM AKST
Civil Twilight 10:25 AM AKST 5:33 PM AKST
Nautical Twilight 9:15 AM AKST 6:43 PM AKST
Astronomical Twilight 8:14 AM AKST 7:45 PM AKST
Moon 4:36 PM AKST (11/28) 11:55 AM AKST (11/28)
Length of Visible Light 7h 07m
Length of Day
4h 32m
Full, 100% of the Moon is Illuminated
Nov 28
Full
Dec 6
Last Quarter
Dec 12
New
Dec 19
First Quarter
Dec 28
Full

Hourly Weather History & Observations

Time (AKST) Temp. Windchill Dew Point Humidity Pressure Visibility Wind Dir Wind Speed Gust Speed Precip Events Conditions
12:55 AM 25.3 °F 16.0 °F 17.2 °F 71% 30.37 in 10.0 mi NNE 9.2 mph - N/A   Overcast
1:55 AM 24.8 °F 13.4 °F 18.0 °F 75% 30.37 in 10.0 mi NNE 12.7 mph - N/A   Overcast
3:55 AM 25.5 °F 13.3 °F 24.1 °F 94% 30.39 in 10.0 mi North 15.0 mph - N/A   Mostly Cloudy
4:55 AM 25.7 °F 11.2 °F 24.6 °F 96% 30.38 in 10.0 mi NNE 21.9 mph - N/A   Mostly Cloudy
5:55 AM 23.2 °F 10.3 °F 22.5 °F 97% 30.41 in 10.0 mi NNE 15.0 mph - N/A   Mostly Cloudy
6:55 AM 20.5 °F 6.9 °F 18.9 °F 93% 30.41 in 10.0 mi NE 15.0 mph - N/A   Mostly Cloudy
7:55 AM 18.7 °F 4.6 °F 16.5 °F 91% 30.42 in 10.0 mi NNE 15.0 mph - N/A   Mostly Cloudy
8:55 AM 16.7 °F 0.1 °F 14.2 °F 90% 30.42 in 10.0 mi NE 19.6 mph - N/A   Mostly Cloudy
9:55 AM 16.0 °F -1.3 °F 10.2 °F 78% 30.44 in 10.0 mi NNE 20.7 mph - N/A   Overcast
10:55 AM 14.4 °F -5.0 °F 5.9 °F 69% 30.44 in 10.0 mi NNE 25.3 mph - N/A   Mostly Cloudy
11:55 AM 11.5 °F -9.6 °F 7.3 °F 83% 30.43 in 10.0 mi NNE 27.6 mph - N/A   Mostly Cloudy
12:55 PM 11.8 °F -7.2 °F 3.9 °F 71% 30.44 in 10.0 mi NNE 21.9 mph - N/A   Clear
1:55 PM 12.9 °F -3.9 °F 3.4 °F 66% 30.46 in 10.0 mi NNE 17.3 mph - N/A   Clear
2:55 PM 11.5 °F -6.7 °F 2.1 °F 66% 30.45 in 10.0 mi NE 19.6 mph - N/A   Clear
3:55 PM 10.6 °F -7.4 °F 1.4 °F 67% 30.45 in 10.0 mi NNE 18.4 mph - N/A   Clear
4:55 PM 12.6 °F -4.4 °F -0.0 °F 57% 30.45 in 10.0 mi NE 17.3 mph - N/A   Clear
5:55 PM 13.1 °F -3.1 °F -1.1 °F 53% 30.45 in 10.0 mi NE 16.1 mph - N/A   Clear
6:55 PM 10.0 °F -7.6 °F -0.8 °F 62% 30.47 in 10.0 mi NNE 17.3 mph - N/A   Clear
7:55 PM 10.9 °F -5.9 °F -0.4 °F 60% 30.48 in 10.0 mi NNE 16.1 mph - N/A   Clear
8:55 PM 11.3 °F -7.4 °F -1.1 °F 57% 30.46 in 10.0 mi NNE 20.7 mph - N/A   Clear
9:55 PM 12.0 °F -5.6 °F -1.7 °F 54% 30.48 in 10.0 mi NNE 18.4 mph - N/A   Clear
10:55 PM 12.4 °F -5.1 °F -1.5 °F 54% 30.47 in 10.0 mi NNE 18.4 mph - N/A   Clear
11:55 PM 11.5 °F -5.8 °F 6.3 °F 80% 30.45 in 10.0 mi NNE 17.3 mph - N/A   Clear